User: anonymous   Login
Location: ??????????
(54.8537°N, 38.8755°E)
Time: 15:42:17
(UTC+00:00)
Language:

Transit 4A - Orbit

View from above orbital plane
View from above orbital plane
View from above satellite
View from above satellite

Ground track
Ground track

The orbit data is extracted from the following two-line orbital elements,

1   116U 61015A   24257.54002861  .00000343  00000-0  32067-3 0  9998
2   116  66.8120  20.6674 0075045 357.7978   2.2759 13.92096741207887
Epoch (UTC): 13 September 2024 12:57:38
Eccentricity: 0.0075045
inclination: 66.8120°
perigee height: 866 km
apogee height: 976 km
right ascension of ascending node: 20.6674°
argument of perigee: 357.7978°
revolutions per day: 13.92096741
mean anomaly at epoch: 2.2759°
orbit number at epoch: 20788

The dashed part of the orbit path shows where the satellite is in the earth's shadow,  

DLR